Voltar ao catálogo

THORAD AGENA D DEB

AtivoLEO
NORAD 42505·DEBRIS·🇺🇸 United States

Lançado Apr 8, 1970 de Vandenberg Space Force Base

Loading…

Próximas Passagens (próximas 24 horas)

TLE

AtualizadoSource: Space-Track

Época: Sep 14, 2026, 02:57 UTC

1 42505U 70025RK  26257.12320782  .00000361  00000-0  54620-3 0  9997
2 42505 100.1810 215.9770 0044300 333.7674  87.7090 13.59879930635362

Acompanhe THORAD AGENA D DEB em tempo real com AllMySat

Download on the App Store